When you browse on this site, cookies collect data to enhance your experience and personalize the content and advertising you see.
Visit our Privacy Policy to learn more. By continuing to use the site, you agree to this use of cookies and data.
  • En España
  • Lista de países
  • Para 7 días
  • Temperatura del agua
  • Mapa Satelital
  • El tiempo en el mapa
  • Informadores
  • user-avatar
    Iniciar sesión

    Tiempo cada hora Gnezdovo

    Hoy, 20 Mayo, Lunes

    Tiempo Temperatura Precipitaciones Viento Presión Humedad
    00:00 +14°C° 0 mm 2 mps 747 mmHg 80%
    01:00 +14°C° 0 mm 2 mps 747 mmHg 81%
    02:00 +13°C° 0 mm 2 mps 747 mmHg 80%
    03:00 +13°C° 0 mm 2 mps 747 mmHg 80%
    04:00 +14°C° 0 mm 2 mps 747 mmHg 80%
    05:00 +14°C° 0 mm 2 mps 747 mmHg 80%
    06:00 +16°C° 0 mm 2 mps 748 mmHg 75%
    07:00 +18°C° 0 mm 3 mps 748 mmHg 70%
    08:00 +20°C° 0 mm 3 mps 748 mmHg 66%
    09:00 +21°C° 0 mm 3 mps 748 mmHg 60%
    10:00 +22°C° 0 mm 4 mps 748 mmHg 54%
    11:00 +23°C° 0 mm 4 mps 748 mmHg 48%
    12:00 +25°C° 0 mm 4 mps 748 mmHg 48%
    13:00 +25°C° 0 mm 4 mps 748 mmHg 47%
    14:00 +25°C° 0 mm 4 mps 748 mmHg 46%
    15:00 +25°C° 0 mm 4 mps 747 mmHg 50%
    16:00 +25°C° 0 mm 3 mps 747 mmHg 54%
    17:00 +24°C° 0 mm 3 mps 747 mmHg 58%
    18:00 +23°C° 0 mm 2 mps 747 mmHg 63%
    19:00 +20°C° 0 mm 2 mps 747 mmHg 69%
    20:00 +18°C° 0 mm 2 mps 747 mmHg 74%
    21:00 +17°C° 0 mm 2 mps 747 mmHg 76%
    22:00 +16°C° 0 mm 2 mps 747 mmHg 78%
    23:00 +15°C° 0 mm 2 mps 747 mmHg 80%

    Mañana, 21 Mayo, Martes

    Tiempo Temperatura Precipitaciones Viento Presión Humedad
    00:00 +15°C° 0 mm 2 mps 747 mmHg 82%
    01:00 +14°C° 0 mm 2 mps 747 mmHg 83%
    02:00 +14°C° 0 mm 2 mps 747 mmHg 85%
    03:00 +13°C° 0 mm 3 mps 747 mmHg 85%
    04:00 +13°C° 0 mm 3 mps 747 mmHg 84%
    05:00 +13°C° 0 mm 3 mps 747 mmHg 84%
    06:00 +14°C° 0 mm 4 mps 747 mmHg 77%
    07:00 +17°C° 0 mm 4 mps 747 mmHg 70%
    08:00 +19°C° 0 mm 5 mps 747 mmHg 63%
    09:00 +20°C° 0 mm 5 mps 746 mmHg 59%
    10:00 +21°C° 0 mm 5 mps 746 mmHg 56%
    11:00 +22°C° 0 mm 6 mps 746 mmHg 53%
    12:00 +22°C° 0 mm 5 mps 746 mmHg 53%
    13:00 +23°C° 0 mm 5 mps 746 mmHg 54%
    14:00 +25°C° 0 mm 5 mps 745 mmHg 54%
    15:00 +23°C° 0 mm 5 mps 745 mmHg 57%
    16:00 +23°C° 0 mm 4 mps 745 mmHg 60%
    17:00 +23°C° 0 mm 4 mps 744 mmHg 63%
    18:00 +21°C° 0 mm 3 mps 744 mmHg 69%
    19:00 +19°C° 0 mm 3 mps 744 mmHg 74%
    20:00 +18°C° 0 mm 3 mps 744 mmHg 80%
    21:00 +17°C° 0 mm 3 mps 744 mmHg 80%
    22:00 +16°C° 0 mm 3 mps 744 mmHg 79%
    23:00 +14°C° 0 mm 3 mps 744 mmHg 79%

    Pasado mañana, 22 Mayo, Miércoles

    Tiempo Temperatura Precipitaciones Viento Presión Humedad
    00:00 +14°C° 0 mm 3 mps 743 mmHg 82%
    01:00 +13°C° 0 mm 3 mps 743 mmHg 85%
    02:00 +12°C° 0 mm 3 mps 743 mmHg 88%
    03:00 +14°C° 0 mm 2 mps 743 mmHg 89%
    04:00 +14°C° 0 mm 2 mps 743 mmHg 90%
    05:00 +14°C° 0 mm 2 mps 742 mmHg 91%
    06:00 +15°C° 0 mm 2 mps 742 mmHg 87%
    07:00 +17°C° 0 mm 2 mps 742 mmHg 83%
    08:00 +19°C° 0 mm 2 mps 742 mmHg 79%
    09:00 +20°C° 0 mm 2 mps 742 mmHg 76%
    10:00 +21°C° 0 mm 3 mps 742 mmHg 73%
    11:00 +22°C° 0 mm 3 mps 741 mmHg 70%
    12:00 +24°C° 0.2 mm 3 mps 741 mmHg 68%
    13:00 +24°C° 0.2 mm 3 mps 741 mmHg 67%
    14:00 +25°C° 0.2 mm 3 mps 741 mmHg 65%
    15:00 +25°C° 0 mm 3 mps 740 mmHg 64%
    16:00 +25°C° 0 mm 3 mps 740 mmHg 64%
    17:00 +25°C° 0 mm 2 mps 740 mmHg 64%
    18:00 +23°C° 0.1 mm 2 mps 740 mmHg 71%
    19:00 +20°C° 0.1 mm 2 mps 740 mmHg 78%
    20:00 +18°C° 0.1 mm 2 mps 740 mmHg 85%
    21:00 +18°C° 0 mm 2 mps 740 mmHg 87%
    22:00 +17°C° 0 mm 2 mps 740 mmHg 89%
    23:00 +16°C° 0 mm 2 mps 740 mmHg 90%

    23 Mayo, Jueves

    Tiempo Temperatura Precipitaciones Viento Presión Humedad
    00:00 +16°C° 0 mm 2 mps 740 mmHg 91%
    01:00 +15°C° 0 mm 2 mps 740 mmHg 92%
    02:00 +15°C° 0 mm 2 mps 740 mmHg 92%
    03:00 +15°C° 0 mm 2 mps 740 mmHg 92%
    04:00 +15°C° 0 mm 2 mps 740 mmHg 91%
    05:00 +15°C° 0 mm 1 mps 740 mmHg 90%
    06:00 +17°C° 0 mm 2 mps 740 mmHg 84%
    07:00 +19°C° 0 mm 2 mps 740 mmHg 78%
    08:00 +21°C° 0 mm 2 mps 740 mmHg 72%
    09:00 +23°C° 0 mm 2 mps 740 mmHg 67%
    10:00 +24°C° 0 mm 3 mps 740 mmHg 62%
    11:00 +25°C° 0 mm 3 mps 739 mmHg 56%
    12:00 +25°C° 0 mm 3 mps 739 mmHg 55%
    13:00 +26°C° 0 mm 3 mps 739 mmHg 54%
    14:00 +26°C° 0 mm 3 mps 739 mmHg 52%
    15:00 +26°C° 0 mm 3 mps 739 mmHg 55%
    16:00 +25°C° 0 mm 3 mps 739 mmHg 57%
    17:00 +25°C° 0 mm 3 mps 739 mmHg 60%
    18:00 +23°C° 0 mm 2 mps 739 mmHg 66%
    19:00 +20°C° 0 mm 2 mps 739 mmHg 71%
    20:00 +19°C° 0 mm 1 mps 739 mmHg 77%
    21:00 +19°C° 0 mm 1 mps 739 mmHg 79%
    22:00 +18°C° 0 mm 1 mps 739 mmHg 81%
    23:00 +16°C° 0 mm 1 mps 739 mmHg 82%

    24 Mayo, Viernes

    Tiempo Temperatura Precipitaciones Viento Presión Humedad
    00:00 +16°C° 0 mm 1 mps 739 mmHg 83%
    01:00 +15°C° 0 mm 1 mps 739 mmHg 84%
    02:00 +15°C° 0 mm 1 mps 739 mmHg 85%
    03:00 +15°C° 0 mm 1 mps 738 mmHg 84%
    04:00 +16°C° 0 mm 1 mps 738 mmHg 84%
    05:00 +16°C° 0 mm 1 mps 738 mmHg 84%
    06:00 +18°C° 0 mm 1 mps 738 mmHg 81%
    07:00 +19°C° 0 mm 2 mps 738 mmHg 77%
    08:00 +20°C° 0 mm 2 mps 738 mmHg 74%
    09:00 +21°C° 0.6 mm 2 mps 738 mmHg 71%
    10:00 +23°C° 0.6 mm 2 mps 738 mmHg 69%
    11:00 +24°C° 0.6 mm 2 mps 738 mmHg 66%
    12:00 +24°C° 0.2 mm 1 mps 738 mmHg 62%
    13:00 +25°C° 0.2 mm 1 mps 738 mmHg 58%
    14:00 +24°C° 0.2 mm 0 mps 737 mmHg 54%
    15:00 +24°C° 0.2 mm 0 mps 737 mmHg 55%
    16:00 +23°C° 0.2 mm 0 mps 737 mmHg 56%
    17:00 +23°C° 0.2 mm 0 mps 737 mmHg 57%
    18:00 +23°C° 0.9 mm 1 mps 737 mmHg 65%
    19:00 +21°C° 0.9 mm 1 mps 737 mmHg 73%
    20:00 +19°C° 0.9 mm 1 mps 736 mmHg 81%
    21:00 +18°C° 0.2 mm 1 mps 736 mmHg 84%
    22:00 +18°C° 0.2 mm 1 mps 736 mmHg 87%
    23:00 +16°C° 0.2 mm 1 mps 736 mmHg 90%

    25 Mayo, Sábado

    Tiempo Temperatura Precipitaciones Viento Presión Humedad
    00:00 +16°C° 0.2 mm 1 mps 736 mmHg 91%
    01:00 +15°C° 0.2 mm 1 mps 736 mmHg 92%
    02:00 +15°C° 0.2 mm 1 mps 736 mmHg 93%
    03:00 +15°C° 0.2 mm 1 mps 736 mmHg 94%
    04:00 +15°C° 0.2 mm 1 mps 736 mmHg 94%
    05:00 +15°C° 0.2 mm 2 mps 736 mmHg 94%
    06:00 +17°C° 0.9 mm 2 mps 736 mmHg 92%
    07:00 +19°C° 0.9 mm 1 mps 736 mmHg 89%
    08:00 +20°C° 0.9 mm 1 mps 736 mmHg 86%
    09:00 +21°C° 1.5 mm 1 mps 736 mmHg 81%
    10:00 +21°C° 1.5 mm 2 mps 736 mmHg 75%
    11:00 +23°C° 1.5 mm 2 mps 735 mmHg 70%
    12:00 +23°C° 1.6 mm 2 mps 735 mmHg 73%
    13:00 +21°C° 1.6 mm 2 mps 735 mmHg 76%
    14:00 +21°C° 1.6 mm 2 mps 735 mmHg 78%
    15:00 +21°C° 0.6 mm 3 mps 735 mmHg 79%
    16:00 +20°C° 0.6 mm 3 mps 735 mmHg 80%
    17:00 +20°C° 0.6 mm 4 mps 735 mmHg 81%
    18:00 +19°C° 0.3 mm 3 mps 735 mmHg 84%
    19:00 +18°C° 0.3 mm 3 mps 735 mmHg 86%
    20:00 +17°C° 0.3 mm 3 mps 735 mmHg 89%
    21:00 +17°C° 0 mm 3 mps 735 mmHg 91%
    22:00 +16°C° 0 mm 3 mps 735 mmHg 93%
    23:00 +14°C° 0 mm 3 mps 735 mmHg 95%
    Mostrar más